Miscellaneous Local Product
Issued by NWS Hastings, NE

Home | Current Version | Previous Version | Text Only | Print | Product List | Glossary Off
Versions: 1 2 3 4 5 6 7 8 9 10 11 12 13 14 15 16 17 18 19 20 21 22 23 24 25 26 27 28 29 30 31 32 33 34 35 36 37 38 39 40 41 42 43 44 45 46 47 48 49 50

923
AXUS43 KGID 060802
MISGRI

GID CWA HOURLY WEATHER ROUNDUP
NATIONAL WEATHER SERVICE HASTINGS NE
200 AM CST SAT FEB 06 2016

NOTE: "FAIR" INDICATES FEW OR NO CLOUDS BELOW 12,000 FEET WITH NO
SIGNIFICANT WEATHER AND/OR OBSTRUCTIONS TO VISIBILITY.

...SOUTH CENTRAL NEBRASKA...

CITY           SKY/WX    TMP DP  RH WIND       PRES   REMARKS
GRAND ISLAND   CLEAR     23  20  88 W8        30.27S WCI  14
HASTINGS       CLEAR     22  18  85 NW7       30.26S WCI  13
ORD            CLEAR     23  20  88 NW5       30.24F WCI  17
YORK           CLEAR     23  23 100 W6        30.26S WCI  16
AURORA         CLEAR     24  24  99 W5        30.26S WCI  18
LEXINGTON      CLOUDY    15  13  90 NW6       30.27F WCI   7
HOLDREGE       CLEAR     21  18  91 W7        30.28S WCI  12
HEBRON         MOCLDY    24  24  97 W3        30.28S

...NEBRASKA PANHANDLE...

CITY           SKY/WX    TMP DP  RH WIND       PRES   REMARKS
CHADRON        CLOUDY    22  13  68 SW9       30.18F WCI  12
ALLIANCE       CLOUDY    11   7  84 W13       30.18F WCI  -4
SCOTTSBLUFF    CLEAR     15   9  76 CALM      30.22F
SIDNEY         CLOUDY    19   9  65 W17       30.23F WCI   4

...WESTERN AND NORTH CENTRAL NEBRASKA...

CITY           SKY/WX    TMP DP  RH WIND       PRES   REMARKS
VALENTINE      CLOUDY    19  16  88 SW6       30.17F WCI  11
AINSWORTH      CLEAR     24  20  86 CALM      30.19F
ONEILL         CLEAR     24  22  89 W9        30.22R WCI  15
BROKEN BOW     CLOUDY    17  16  95 CALM      30.23F
IMPERIAL       CLOUDY    17   9  70 W9        30.26F WCI   6
NORTH PLATTE   CLOUDY    12   7  80 NW6       30.26F WCI   3
MCCOOK         CLOUDY    17  13  84 SW6       30.28F WCI   9

...EASTERN NEBRASKA...

CITY           SKY/WX    TMP DP  RH WIND       PRES   REMARKS
NORFOLK        FOG       20  17  88 CALM      30.23S VSB 1/4
SO SIOUX CITY  FOG       22  19  89 W3        30.24S VSB 3/4
TEKAMAH        CLOUDY    31  28  89 NW7       30.26S WCI  24
COLUMBUS         N/A     19   9  63 CALM      30.26S VSB 1/4
ALBION         PTCLDY    23  21  92 NW5       30.25S WCI  17
OMAHA EPPLEY   CLOUDY    30  28  92 NW8       30.26S WCI  22
OFFUTT AFB     CLOUDY    30  30  99 W3        30.25S
MILLARD        CLOUDY    33  31  93 CALM      30.26S
LINCOLN        CLOUDY    34  29  82 NW7       30.28S WCI  28
NEBRASKA CITY  CLOUDY    32  32  99 NW6       30.25F WCI  27
BEATRICE       CLOUDY    30  29  94 W6        30.27S WCI  24
FALLS CITY     CLEAR     28  24  85 NW3       30.26S

...NORTHERN KANSAS...

CITY           SKY/WX    TMP DP  RH WIND       PRES   REMARKS
GOODLAND       CLOUDY    16   8  71 W12       30.29S WCI   3
HILL CITY      CLEAR     22  16  78 NW7       30.32R WCI  13
NORTON         SUNNY     18  12  79 W8        30.29F WCI   7
PHILLIPSBURG   CLEAR     21  19  93 W6        30.31S WCI  14
BELOIT         CLOUDY    30  28  93 W3        30.30R
HAYS           CLEAR     23  10  58 NW8       30.31R WCI  14
RUSSELL        CLEAR     26  22  84 NW9       30.29R WCI  17
CONCORDIA      CLEAR     29  25  85 NW8       30.28S WCI  21
SALINA         CLEAR     29  24  82 NW7       30.30S WCI  22
TOPEKA         CLEAR     27  23  85 NW3       30.27R



USA.gov is the U.S. government's official web portal to all federal, state and local government web resources and services.